Location: Dumpton Point
(51.3500°N, 1.4433°E)
Time: 02:30:08
(UTC+00:00)

Cosmos 2322 Rocket - Pass Details

Date: 09 April 2020
Orbit: 834 x 849 km, 71.0° (Epoch: 25 May)

Event Time Altitude Azimuth Distance (km) Brightness Sun altitude
Rises 21:33:33 0° 331° (NNW) 3,409 6.8 -23.2°
Reaches altitude 10° 21:36:22 10° 343° (NNW) 2,469 5.6 -23.5°
Maximum altitude 21:41:14 29° 42° (NE) 1,505 3.6 -24.0°
Enters shadow 21:43:02 24° 73° (ENE) 1,666 3.5 -24.1°
